• In Österreich
  • Länderverzeichnis
  • Für 7 Tage
  • Wassertemperatur
  • Satellitenkarten
  • Wetterkarte
  • News
  • Widgets
  • user-avatar
    Anmelden

    Stündliche Wetter Finevo

    Heute, 25 September, Dienstag

    Zeit Temperatur Niederschläge Wind Luftdruck Luftfeuchtigkeit
    00:00 +6°C° 0.1 mm 5 m/S 732 mmHg 92%
    01:00 +5°C° 0.1 mm 5 m/S 733 mmHg 91%
    02:00 +5°C° 0.1 mm 5 m/S 733 mmHg 90%
    03:00 +5°C° 0 mm 5 m/S 734 mmHg 90%
    04:00 +3°C° 0 mm 5 m/S 735 mmHg 91%
    05:00 +3°C° 0 mm 5 m/S 735 mmHg 91%
    06:00 +3°C° 0 mm 5 m/S 736 mmHg 89%
    07:00 +3°C° 0 mm 5 m/S 737 mmHg 88%
    08:00 +5°C° 0 mm 5 m/S 737 mmHg 86%
    09:00 +6°C° 0 mm 5 m/S 738 mmHg 80%
    10:00 +6°C° 0 mm 5 m/S 739 mmHg 75%
    11:00 +7°C° 0 mm 6 m/S 739 mmHg 69%
    12:00 +8°C° 0.1 mm 6 m/S 740 mmHg 66%
    13:00 +8°C° 0.1 mm 6 m/S 740 mmHg 63%
    14:00 +8°C° 0.1 mm 6 m/S 741 mmHg 59%
    15:00 +8°C° 0.1 mm 5 m/S 742 mmHg 63%
    16:00 +7°C° 0.1 mm 5 m/S 742 mmHg 66%
    17:00 +6°C° 0.1 mm 4 m/S 743 mmHg 70%
    18:00 +5°C° 0 mm 4 m/S 744 mmHg 72%
    19:00 +4°C° 0 mm 4 m/S 744 mmHg 74%
    20:00 +4°C° 0 mm 4 m/S 745 mmHg 75%
    21:00 +3°C° 0 mm 4 m/S 746 mmHg 75%
    22:00 +3°C° 0 mm 4 m/S 746 mmHg 74%
    23:00 +2°C° 0 mm 3 m/S 747 mmHg 73%

    Morgen, 26 September, Mittwoch

    Zeit Temperatur Niederschläge Wind Luftdruck Luftfeuchtigkeit
    00:00 +2°C° 0 mm 3 m/S 747 mmHg 75%
    01:00 +1°C° 0 mm 3 m/S 748 mmHg 76%
    02:00 +1°C° 0 mm 3 m/S 749 mmHg 78%
    03:00 +1°C° 0 mm 3 m/S 749 mmHg 81%
    04:00 +2°C° 0 mm 2 m/S 749 mmHg 84%
    05:00 +2°C° 0 mm 2 m/S 750 mmHg 86%
    06:00 +2°C° 0 mm 3 m/S 750 mmHg 84%
    07:00 +3°C° 0 mm 3 m/S 750 mmHg 82%
    08:00 +3°C° 0 mm 3 m/S 750 mmHg 80%
    09:00 +5°C° 0 mm 3 m/S 750 mmHg 71%
    10:00 +7°C° 0 mm 4 m/S 750 mmHg 63%
    11:00 +10°C° 0 mm 4 m/S 749 mmHg 55%
    12:00 +9°C° 0 mm 5 m/S 749 mmHg 53%
    13:00 +10°C° 0 mm 5 m/S 748 mmHg 51%
    14:00 +10°C° 0 mm 5 m/S 747 mmHg 50%
    15:00 +9°C° 0.1 mm 5 m/S 746 mmHg 57%
    16:00 +9°C° 0.1 mm 5 m/S 746 mmHg 64%
    17:00 +8°C° 0.1 mm 5 m/S 745 mmHg 71%
    18:00 +7°C° 1 mm 6 m/S 744 mmHg 77%
    19:00 +6°C° 1 mm 7 m/S 743 mmHg 82%
    20:00 +5°C° 1 mm 7 m/S 742 mmHg 88%
    21:00 +5°C° 1.6 mm 7 m/S 740 mmHg 89%
    22:00 +5°C° 1.6 mm 7 m/S 739 mmHg 89%
    23:00 +5°C° 1.6 mm 8 m/S 738 mmHg 90%

    übermorgen, 27 September, Donnerstag

    Zeit Temperatur Niederschläge Wind Luftdruck Luftfeuchtigkeit
    00:00 +6°C° 1 mm 7 m/S 737 mmHg 90%
    01:00 +6°C° 1 mm 7 m/S 736 mmHg 90%
    02:00 +8°C° 1 mm 7 m/S 735 mmHg 91%
    03:00 +8°C° 1 mm 6 m/S 735 mmHg 91%
    04:00 +7°C° 1 mm 5 m/S 735 mmHg 92%
    05:00 +7°C° 1 mm 4 m/S 735 mmHg 92%
    06:00 +7°C° 0 mm 4 m/S 736 mmHg 90%
    07:00 +7°C° 0 mm 4 m/S 736 mmHg 87%
    08:00 +7°C° 0 mm 4 m/S 736 mmHg 84%
    09:00 +8°C° 0 mm 5 m/S 737 mmHg 76%
    10:00 +9°C° 0 mm 6 m/S 737 mmHg 69%
    11:00 +10°C° 0 mm 6 m/S 737 mmHg 61%
    12:00 +10°C° 0 mm 6 m/S 737 mmHg 58%
    13:00 +10°C° 0 mm 6 m/S 738 mmHg 54%
    14:00 +11°C° 0 mm 6 m/S 738 mmHg 51%
    15:00 +10°C° 0 mm 5 m/S 738 mmHg 56%
    16:00 +10°C° 0 mm 4 m/S 739 mmHg 60%
    17:00 +9°C° 0 mm 3 m/S 739 mmHg 65%
    18:00 +8°C° 0 mm 3 m/S 739 mmHg 67%
    19:00 +8°C° 0 mm 3 m/S 739 mmHg 69%
    20:00 +7°C° 0 mm 3 m/S 740 mmHg 71%
    21:00 +5°C° 0 mm 3 m/S 740 mmHg 74%
    22:00 +5°C° 0 mm 3 m/S 740 mmHg 76%
    23:00 +5°C° 0 mm 2 m/S 740 mmHg 78%

    28 September, Freitag

    Zeit Temperatur Niederschläge Wind Luftdruck Luftfeuchtigkeit
    00:00 +5°C° 0 mm 2 m/S 739 mmHg 79%
    01:00 +5°C° 0 mm 2 m/S 739 mmHg 79%
    02:00 +5°C° 0 mm 2 m/S 738 mmHg 80%
    03:00 +5°C° 1.7 mm 3 m/S 736 mmHg 84%
    04:00 +6°C° 1.7 mm 4 m/S 735 mmHg 88%
    05:00 +7°C° 1.7 mm 5 m/S 733 mmHg 93%
    06:00 +8°C° 2.1 mm 6 m/S 732 mmHg 92%
    07:00 +9°C° 2.1 mm 6 m/S 731 mmHg 91%
    08:00 +10°C° 2.1 mm 7 m/S 731 mmHg 90%
    09:00 +9°C° 0.9 mm 6 m/S 731 mmHg 90%
    10:00 +8°C° 0.9 mm 6 m/S 732 mmHg 89%
    11:00 +6°C° 0.9 mm 5 m/S 733 mmHg 89%
    12:00 +6°C° 0.1 mm 5 m/S 735 mmHg 86%
    13:00 +6°C° 0.1 mm 5 m/S 736 mmHg 84%
    14:00 +6°C° 0.1 mm 4 m/S 738 mmHg 81%
    15:00 +6°C° 0.1 mm 4 m/S 739 mmHg 81%
    16:00 +5°C° 0.1 mm 3 m/S 740 mmHg 81%
    17:00 +6°C° 0.1 mm 2 m/S 741 mmHg 80%
    18:00 +5°C° 0 mm 2 m/S 741 mmHg 83%
    19:00 +4°C° 0 mm 2 m/S 742 mmHg 86%
    20:00 +4°C° 0 mm 1 m/S 742 mmHg 88%
    21:00 +4°C° 0 mm 1 m/S 742 mmHg 89%
    22:00 +3°C° 0 mm 2 m/S 742 mmHg 90%
    23:00 +2°C° 0 mm 2 m/S 743 mmHg 92%

    29 September, Samstag

    Zeit Temperatur Niederschläge Wind Luftdruck Luftfeuchtigkeit
    00:00 +3°C° 0 mm 2 m/S 743 mmHg 91%
    01:00 +3°C° 0 mm 2 m/S 743 mmHg 91%
    02:00 +3°C° 0 mm 3 m/S 743 mmHg 91%
    03:00 +3°C° 0 mm 3 m/S 743 mmHg 92%
    04:00 +3°C° 0 mm 3 m/S 743 mmHg 93%
    05:00 +3°C° 0 mm 3 m/S 744 mmHg 93%
    06:00 +3°C° 0.1 mm 3 m/S 744 mmHg 91%
    07:00 +4°C° 0.1 mm 3 m/S 745 mmHg 89%
    08:00 +4°C° 0.1 mm 3 m/S 745 mmHg 87%
    09:00 +5°C° 0 mm 3 m/S 746 mmHg 77%
    10:00 +6°C° 0 mm 2 m/S 746 mmHg 68%
    11:00 +7°C° 0 mm 2 m/S 747 mmHg 58%
    12:00 +8°C° 0 mm 2 m/S 747 mmHg 55%
    13:00 +8°C° 0 mm 2 m/S 747 mmHg 51%
    14:00 +8°C° 0 mm 2 m/S 747 mmHg 47%
    15:00 +8°C° 0 mm 2 m/S 747 mmHg 53%
    16:00 +8°C° 0 mm 1 m/S 748 mmHg 60%
    17:00 +7°C° 0 mm 1 m/S 748 mmHg 66%
    18:00 +6°C° 0 mm 1 m/S 748 mmHg 69%
    19:00 +5°C° 0 mm 1 m/S 749 mmHg 72%
    20:00 +4°C° 0 mm 1 m/S 749 mmHg 75%
    21:00 +3°C° 0 mm 1 m/S 749 mmHg 77%
    22:00 +3°C° 0 mm 1 m/S 749 mmHg 78%
    23:00 +2°C° 0 mm 2 m/S 749 mmHg 80%

    30 September, Sonntag

    Zeit Temperatur Niederschläge Wind Luftdruck Luftfeuchtigkeit
    00:00 +2°C° 0 mm 2 m/S 749 mmHg 80%
    01:00 +1°C° 0 mm 2 m/S 750 mmHg 80%
    02:00 +1°C° 0 mm 2 m/S 750 mmHg 81%
    03:00 +1°C° 0 mm 2 m/S 749 mmHg 80%
    04:00 +1°C° 0 mm 2 m/S 749 mmHg 80%
    05:00 +1°C° 0 mm 2 m/S 749 mmHg 80%
    06:00 +1°C° 0 mm 3 m/S 749 mmHg 76%
    07:00 +2°C° 0 mm 3 m/S 749 mmHg 72%
    08:00 +3°C° 0 mm 3 m/S 749 mmHg 68%
    09:00 +4°C° 0 mm 3 m/S 749 mmHg 64%
    10:00 +5°C° 0 mm 4 m/S 748 mmHg 60%
    11:00 +6°C° 0 mm 4 m/S 748 mmHg 57%
    12:00 +7°C° 0 mm 4 m/S 748 mmHg 54%
    13:00 +8°C° 0 mm 4 m/S 747 mmHg 52%
    14:00 +8°C° 0 mm 4 m/S 746 mmHg 49%
    15:00 +7°C° 0 mm 4 m/S 746 mmHg 54%
    16:00 +7°C° 0 mm 3 m/S 746 mmHg 58%
    17:00 +7°C° 0 mm 3 m/S 745 mmHg 63%
    18:00 +5°C° 0 mm 3 m/S 745 mmHg 67%
    19:00 +4°C° 0 mm 3 m/S 745 mmHg 71%
    20:00 +4°C° 0 mm 3 m/S 745 mmHg 75%
    21:00 +4°C° 0 mm 3 m/S 744 mmHg 77%
    22:00 +4°C° 0 mm 3 m/S 744 mmHg 80%
    23:00 +4°C° 0 mm 3 m/S 744 mmHg 82%
    Mehr zeigen